Location: Ústí nad Labem
(50.6611°N, 14.0531°E)
Time: 15:59:36
(UTC+02:00)

Transit 2A Rocket - Pass Details

Date: 24 April 2024
Orbit: 585 x 909 km, 66.7° (Epoch: 20 May)

Event Time Altitude Azimuth Distance (km) Brightness Sun altitude
Rises 21:00:03 0° 317° (NW) 3,315 10.1 -7.3°
Reaches altitude 10° 21:02:34 10° 309° (NW) 2,429 9.3 -7.7°
Maximum altitude 21:07:39 36° 245° (WSW) 1,352 6.6 -8.3°
Drops below altitude 10° 21:13:00 10° 182° (S) 2,557 7.4 -9.1°
Sets 21:15:44 0° 174° (S) 3,512 8.0 -9.4°
